{"data":{"norad_id":62890,"intl_designator":"2025-024M","name":"STARLINK-11431 [DTC]","alt_names":[],"object_type":"PAYLOAD","status":"ACTIVE","operator":null,"country":"US","launch_date":"2025-02-04","launch_site_code":"AFETR","launch_vehicle":null,"mission":null,"orbit_class":"UNKNOWN","rcs_meters":null,"size_class":null,"mass_kg":null,"dimensions":null,"purposes":["comms"],"wikipedia_slug":null,"has_3d_model":false,"image_url":null,"decayed_at":null,"tle_current":{"epoch":"2026-09-21T19:01:47.407584Z","epoch_age_seconds":56876,"freshness":"FRESH","line1":"1 62890U 25024M   26264.79290981  .00224595  00000+0  16991-2 0  9997","line2":"2 62890  43.0006  79.8470 0001141 256.5044 103.5697 15.70949109 94300","mean_motion":15.70949109,"eccentricity":0.0001141,"inclination_deg":43.0006,"raan_deg":79.847,"arg_perigee_deg":256.5044,"mean_anomaly_deg":103.5697,"bstar":0.0016991,"rev_number":9430,"period_min":91.664331565562,"perigee_km":355.41483973849,"apogee_km":356.95161161399,"semimajor_km":6734.3202256762,"source":"CELESTRAK","updated_at":"2026-09-22T09:00:49.704179Z"}}}